CFG4TH HEGN-EDDS

Flight info

Callsign CFG4TH
Flight time 4h 27m
Altitude 32000
Route HGD V608 NABED T55 KUNKI L321 REXUM M872 SOBAX DCT NOGLI L551 ANTAR UN133 KPC DCT FSK UL608 DISOR DCT LONTA UL608 DOLEV DCT MITNO DCT LURID DCT PODET DCT TITIG L173 MAH/N0397F240 L173 DODIL T127 TEKSI TEKSI1W
Aircraft A21N/M-SDE2E3FGHIRWXY/LB1

Departure

Time 2026-05-07 08:25
Airport Hurghada International Airport (HEGN)

Arrival

Time 2026-05-07 12:52
Airport Stuttgart Airport (EDDS)
Time Latitude Longitude Altitude Speed Heading
2026-05-07 08:07 27.17409 33.80773 34 ft 0 kts 75°
2026-05-07 08:16 27.17408 33.80771 35 ft 3 kts 75°
2026-05-07 08:16 27.17404 33.80750 33 ft 3 kts 78°
2026-05-07 08:17 27.17400 33.80730 33 ft 3 kts 86°
2026-05-07 08:17 27.17404 33.80710 32 ft 3 kts 148°
2026-05-07 08:17 27.17413 33.80705 31 ft 0 kts 169°
2026-05-07 08:19 27.17411 33.80705 31 ft 1 kts 169°
2026-05-07 08:20 27.17368 33.80691 34 ft 10 kts 249°
2026-05-07 08:20 27.17346 33.80654 33 ft 4 kts 167°
2026-05-07 08:20 27.17314 33.80669 34 ft 7 kts 157°
2026-05-07 08:20 27.17247 33.80699 34 ft 11 kts 161°
2026-05-07 08:21 27.17177 33.80725 33 ft 10 kts 162°
2026-05-07 08:21 27.17111 33.80743 33 ft 9 kts 177°
2026-05-07 08:21 27.17066 33.80707 33 ft 8 kts 246°
2026-05-07 08:21 27.17049 33.80657 33 ft 6 kts 250°
2026-05-07 08:22 27.17038 33.80613 33 ft 8 kts 260°
2026-05-07 08:22 27.17001 33.80539 33 ft 12 kts 202°
2026-05-07 08:22 27.16921 33.80546 33 ft 12 kts 165°
2026-05-07 08:22 27.16799 33.80584 31 ft 22 kts 164°
2026-05-07 08:23 27.16657 33.80628 31 ft 20 kts 165°
2026-05-07 08:23 27.16528 33.80664 30 ft 18 kts 166°
2026-05-07 08:23 27.16409 33.80697 29 ft 17 kts 166°
2026-05-07 08:23 27.16298 33.80728 29 ft 16 kts 162°
2026-05-07 08:24 27.16194 33.80762 28 ft 13 kts 169°
2026-05-07 08:24 27.16151 33.80712 27 ft 9 kts 252°
2026-05-07 08:24 27.16150 33.80630 27 ft 15 kts 296°
2026-05-07 08:24 27.16272 33.80566 27 ft 34 kts 345°
2026-05-07 08:25 27.16718 33.80434 31 ft 96 kts 345°
2026-05-07 08:25 27.17523 33.80198 37 ft 141 kts 345°
2026-05-07 08:25 27.18564 33.79899 336 ft 155 kts 346°
2026-05-07 08:25 27.19580 33.79601 1095 ft 149 kts 345°
2026-05-07 08:26 27.21546 33.78963 1819 ft 160 kts 342°
2026-05-07 08:26 27.22673 33.78567 1950 ft 178 kts 342°
2026-05-07 08:26 27.23899 33.78146 2162 ft 190 kts 341°
2026-05-07 08:27 27.25177 33.77706 2441 ft 195 kts 341°
2026-05-07 08:27 27.26492 33.77274 2746 ft 198 kts 343°
2026-05-07 08:27 27.27819 33.76844 3085 ft 200 kts 341°
2026-05-07 08:27 27.29227 33.76381 3267 ft 223 kts 340°
2026-05-07 08:28 27.30738 33.75885 3747 ft 225 kts 341°
2026-05-07 08:28 27.32090 33.75054 4308 ft 223 kts 315°
2026-05-07 08:28 27.32911 33.73587 4645 ft 234 kts 289°
2026-05-07 08:28 27.33103 33.71699 4760 ft 256 kts 263°
2026-05-07 08:29 27.32629 33.69685 5050 ft 274 kts 253°
2026-05-07 08:29 27.32025 33.67644 5740 ft 275 kts 252°
2026-05-07 08:29 27.31402 33.65616 6448 ft 275 kts 251°
2026-05-07 08:29 27.30771 33.63565 7004 ft 279 kts 252°
2026-05-07 08:30 27.30142 33.61501 7630 ft 280 kts 253°
2026-05-07 08:30 27.29518 33.59426 8282 ft 281 kts 252°
2026-05-07 08:30 27.28897 33.57339 8910 ft 283 kts 253°
2026-05-07 08:30 27.28283 33.55266 9531 ft 284 kts 253°
2026-05-07 08:31 27.27655 33.53143 10082 ft 287 kts 253°
2026-05-07 08:31 27.27011 33.50964 10311 ft 303 kts 252°
2026-05-07 08:31 27.26327 33.48645 10440 ft 321 kts 252°
2026-05-07 08:31 27.25604 33.46193 10558 ft 339 kts 252°
2026-05-07 08:32 27.24844 33.43617 10678 ft 356 kts 252°
2026-05-07 08:32 27.24046 33.40918 10806 ft 371 kts 252°
2026-05-07 08:32 27.23223 33.38137 11154 ft 378 kts 252°
2026-05-07 08:32 27.22423 33.35351 11621 ft 381 kts 256°
2026-05-07 08:33 27.21973 33.32414 12124 ft 382 kts 266°
2026-05-07 08:33 27.22026 33.29420 12602 ft 385 kts 275°
2026-05-07 08:33 27.22282 33.26421 13096 ft 387 kts 275°
2026-05-07 08:33 27.22537 33.23398 13615 ft 389 kts 275°
2026-05-07 08:34 27.22790 33.20362 14085 ft 392 kts 275°
2026-05-07 08:34 27.23041 33.17309 14530 ft 394 kts 275°
2026-05-07 08:34 27.23292 33.14243 14987 ft 395 kts 275°
2026-05-07 08:34 27.23539 33.11197 15424 ft 397 kts 275°
2026-05-07 08:35 27.23789 33.08094 15868 ft 400 kts 275°
2026-05-07 08:35 27.24043 33.04980 16318 ft 402 kts 275°
2026-05-07 08:35 27.24300 33.01845 16769 ft 404 kts 275°
2026-05-07 08:35 27.24556 32.98694 17213 ft 406 kts 275°
2026-05-07 08:36 27.24812 32.95525 17668 ft 408 kts 275°
2026-05-07 08:36 27.25065 32.92341 18106 ft 410 kts 275°
2026-05-07 08:36 27.25232 32.90223 18378 ft 412 kts 275°
2026-05-07 08:36 27.25486 32.87012 18740 ft 414 kts 275°
2026-05-07 08:37 27.25823 32.82732 19236 ft 417 kts 275°
2026-05-07 08:37 27.26082 32.79482 19603 ft 419 kts 275°
2026-05-07 08:37 27.26343 32.76212 19994 ft 421 kts 275°
2026-05-07 08:37 27.26601 32.72931 20366 ft 423 kts 275°
2026-05-07 08:38 27.26772 32.70750 20615 ft 424 kts 275°
2026-05-07 08:38 27.27028 32.67444 20979 ft 426 kts 275°
2026-05-07 08:38 27.27285 32.64124 21338 ft 428 kts 275°
2026-05-07 08:38 27.27544 32.60788 21700 ft 430 kts 275°
2026-05-07 08:39 27.27894 32.56335 22114 ft 433 kts 275°
2026-05-07 08:39 27.28158 32.52954 22444 ft 436 kts 275°
2026-05-07 08:39 27.28423 32.49549 22781 ft 438 kts 275°
2026-05-07 08:39 27.28688 32.46141 23124 ft 440 kts 275°
2026-05-07 08:40 27.28863 32.43870 23346 ft 441 kts 275°
2026-05-07 08:40 27.29128 32.40424 23657 ft 443 kts 275°
2026-05-07 08:40 27.29389 32.36966 23938 ft 445 kts 275°
2026-05-07 08:40 27.29679 32.33498 24190 ft 447 kts 278°
2026-05-07 08:41 27.30367 32.30092 24446 ft 448 kts 288°
2026-05-07 08:41 27.31560 32.26848 24723 ft 451 kts 297°
2026-05-07 08:41 27.33223 32.23856 24989 ft 453 kts 306°
2026-05-07 08:41 27.35158 32.21042 25266 ft 455 kts 307°
2026-05-07 08:42 27.37070 32.18262 25554 ft 456 kts 306°
2026-05-07 08:42 27.39010 32.15432 25828 ft 458 kts 306°
2026-05-07 08:42 27.40953 32.12590 26098 ft 458 kts 306°
2026-05-07 08:42 27.42893 32.09752 26467 ft 457 kts 306°
2026-05-07 08:43 27.44829 32.06919 26858 ft 456 kts 306°
2026-05-07 08:43 27.46756 32.04095 27206 ft 455 kts 306°
2026-05-07 08:43 27.48681 32.01272 27560 ft 454 kts 306°
2026-05-07 08:43 27.50603 31.98454 27893 ft 453 kts 307°
2026-05-07 08:44 27.52500 31.95677 28253 ft 453 kts 306°
2026-05-07 08:44 27.54418 31.92867 28587 ft 452 kts 306°
2026-05-07 08:44 27.56328 31.90064 28930 ft 451 kts 306°
2026-05-07 08:44 27.58233 31.87263 29260 ft 450 kts 306°
2026-05-07 08:45 27.60134 31.84462 29605 ft 449 kts 306°
2026-05-07 08:45 27.62032 31.81665 29919 ft 449 kts 306°
2026-05-07 08:45 27.63927 31.78873 30246 ft 448 kts 307°
2026-05-07 08:45 27.65818 31.76090 30526 ft 447 kts 307°
2026-05-07 08:46 27.67683 31.73348 30819 ft 446 kts 307°
2026-05-07 08:46 27.69566 31.70576 31102 ft 445 kts 306°
2026-05-07 08:46 27.71442 31.67810 31390 ft 444 kts 306°
2026-05-07 08:46 27.73313 31.65043 31672 ft 443 kts 306°
2026-05-07 08:47 27.75180 31.62281 31971 ft 442 kts 306°
2026-05-07 08:47 27.77043 31.59523 32101 ft 441 kts 306°
2026-05-07 08:47 27.80750 31.54042 32122 ft 439 kts 306°
2026-05-07 08:48 27.84417 31.48599 32125 ft 438 kts 306°
2026-05-07 08:48 27.88106 31.43131 32135 ft 438 kts 307°
2026-05-07 08:49 27.91802 31.37651 32133 ft 438 kts 306°
2026-05-07 08:49 27.95490 31.32157 32135 ft 439 kts 306°
2026-05-07 08:50 27.99178 31.26657 32133 ft 439 kts 306°
2026-05-07 08:50 28.02845 31.21196 32136 ft 439 kts 307°
2026-05-07 08:51 28.06534 31.15687 32140 ft 439 kts 307°
2026-05-07 08:51 28.10082 31.10061 32144 ft 439 kts 303°
2026-05-07 08:52 28.13426 31.04288 32148 ft 438 kts 302°
2026-05-07 08:52 28.16730 30.98541 32146 ft 438 kts 303°
2026-05-07 08:53 28.20098 30.92783 32151 ft 438 kts 303°
2026-05-07 08:53 28.23480 30.87053 32153 ft 437 kts 303°
2026-05-07 08:54 28.26855 30.81328 32150 ft 436 kts 303°
2026-05-07 08:54 28.30198 30.75640 32148 ft 436 kts 303°
2026-05-07 08:55 28.33555 30.69898 32145 ft 436 kts 303°
2026-05-07 08:55 28.36910 30.64164 32139 ft 436 kts 303°
2026-05-07 08:56 28.40264 30.58427 32135 ft 436 kts 303°
2026-05-07 08:56 28.43598 30.52720 32133 ft 436 kts 303°
2026-05-07 08:57 28.46944 30.46970 32134 ft 436 kts 303°
2026-05-07 08:57 28.50287 30.41217 32133 ft 436 kts 303°
2026-05-07 08:58 28.53633 30.35463 32139 ft 436 kts 303°
2026-05-07 08:58 28.56943 30.29754 32143 ft 435 kts 303°
2026-05-07 08:59 28.60280 30.24005 32147 ft 435 kts 303°
2026-05-07 08:59 28.63607 30.18257 32146 ft 435 kts 303°
2026-05-07 09:00 28.66912 30.12545 32148 ft 435 kts 303°
2026-05-07 09:00 28.70230 30.06799 32146 ft 434 kts 303°
2026-05-07 09:01 28.73540 30.01052 32149 ft 434 kts 303°
2026-05-07 09:01 28.76843 29.95297 32154 ft 434 kts 303°
2026-05-07 09:02 28.80132 29.89580 32142 ft 434 kts 303°
2026-05-07 09:02 28.83441 29.83825 32139 ft 434 kts 303°
2026-05-07 09:03 28.86744 29.78063 32136 ft 434 kts 304°
2026-05-07 09:03 28.90036 29.72305 32141 ft 433 kts 304°
2026-05-07 09:04 28.93300 29.66579 32144 ft 433 kts 304°
2026-05-07 09:04 28.96587 29.60824 32144 ft 433 kts 304°
2026-05-07 09:05 28.99872 29.55070 32144 ft 432 kts 304°
2026-05-07 09:05 29.03151 29.49314 32146 ft 431 kts 304°
2026-05-07 09:06 29.06410 29.43572 32149 ft 430 kts 304°
2026-05-07 09:06 29.09857 29.38066 32149 ft 428 kts 315°
2026-05-07 09:07 29.12127 29.35886 32151 ft 427 kts 326°
2026-05-07 09:07 29.14740 29.34273 32148 ft 427 kts 337°
2026-05-07 09:07 29.17583 29.33280 32146 ft 429 kts 348°
2026-05-07 09:07 29.20559 29.32952 32139 ft 432 kts 357°
2026-05-07 09:08 29.26574 29.32905 32128 ft 433 kts 357°
2026-05-07 09:08 29.32552 29.32872 32126 ft 433 kts 357°
2026-05-07 09:09 29.38583 29.32836 32130 ft 433 kts 357°
2026-05-07 09:09 29.44613 29.32793 32133 ft 434 kts 357°
2026-05-07 09:10 29.50648 29.32734 32133 ft 434 kts 357°
2026-05-07 09:10 29.56654 29.32692 32130 ft 434 kts 357°
2026-05-07 09:11 29.62699 29.32658 32127 ft 435 kts 357°
2026-05-07 09:11 29.68745 29.32608 32136 ft 435 kts 357°
2026-05-07 09:12 29.74801 29.32557 32131 ft 435 kts 357°
2026-05-07 09:12 29.80857 29.32511 32131 ft 435 kts 357°
2026-05-07 09:13 29.86875 29.32468 32129 ft 436 kts 357°
2026-05-07 09:13 29.92939 29.32428 32132 ft 436 kts 357°
2026-05-07 09:14 29.99005 29.32377 32132 ft 436 kts 357°
2026-05-07 09:14 30.05061 29.32334 32133 ft 436 kts 357°
2026-05-07 09:15 30.11080 29.32287 32133 ft 435 kts 357°
2026-05-07 09:15 30.17141 29.32236 32142 ft 435 kts 357°
2026-05-07 09:16 30.23198 29.32187 32140 ft 436 kts 357°
2026-05-07 09:16 30.29262 29.32148 32137 ft 436 kts 357°
2026-05-07 09:17 30.35284 29.32104 32132 ft 436 kts 357°
2026-05-07 09:17 30.41344 29.32045 32133 ft 436 kts 357°
2026-05-07 09:18 30.47413 29.31991 32139 ft 436 kts 357°
2026-05-07 09:18 30.53482 29.31939 32137 ft 436 kts 357°
2026-05-07 09:19 30.59558 29.31885 32141 ft 436 kts 357°
2026-05-07 09:19 30.65590 29.31828 32138 ft 436 kts 357°
2026-05-07 09:20 30.71663 29.31770 32146 ft 437 kts 357°
2026-05-07 09:20 30.77744 29.31720 32148 ft 437 kts 357°
2026-05-07 09:21 30.83822 29.31669 32147 ft 437 kts 357°
2026-05-07 09:21 30.89857 29.31610 32152 ft 437 kts 357°
2026-05-07 09:22 30.95940 29.31558 32156 ft 437 kts 357°
2026-05-07 09:22 31.02024 29.31509 32153 ft 437 kts 357°
2026-05-07 09:23 31.08109 29.31451 32156 ft 437 kts 357°
2026-05-07 09:23 31.14160 29.31397 32156 ft 438 kts 357°
2026-05-07 09:24 31.20252 29.31351 32154 ft 438 kts 357°
2026-05-07 09:24 31.26354 29.31297 32152 ft 439 kts 357°
2026-05-07 09:25 31.32470 29.31238 32156 ft 439 kts 357°
2026-05-07 09:25 31.38585 29.31176 32157 ft 440 kts 357°
2026-05-07 09:26 31.44704 29.31113 32161 ft 440 kts 357°
2026-05-07 09:26 31.50783 29.31051 32164 ft 440 kts 357°
2026-05-07 09:27 31.56907 29.30990 32169 ft 440 kts 357°
2026-05-07 09:28 31.66091 29.30892 32172 ft 440 kts 357°
2026-05-07 09:28 31.72167 29.30825 32172 ft 440 kts 357°
2026-05-07 09:29 31.78282 29.30757 32177 ft 440 kts 357°
2026-05-07 09:29 31.84400 29.30689 32178 ft 439 kts 357°
2026-05-07 09:30 31.90513 29.30627 32184 ft 439 kts 357°
2026-05-07 09:30 31.96631 29.30567 32186 ft 440 kts 357°
2026-05-07 09:31 32.02705 29.30500 32184 ft 440 kts 357°
2026-05-07 09:31 32.08821 29.30432 32184 ft 440 kts 357°
2026-05-07 09:32 32.14938 29.30372 32189 ft 440 kts 357°
2026-05-07 09:32 32.20990 29.29717 32186 ft 435 kts 343°
2026-05-07 09:33 32.26491 29.27019 32184 ft 431 kts 330°
2026-05-07 09:33 32.31757 29.23626 32182 ft 431 kts 330°
2026-05-07 09:34 32.37023 29.20252 32195 ft 430 kts 330°
2026-05-07 09:34 32.42274 29.16891 32197 ft 429 kts 330°
2026-05-07 09:35 32.47479 29.13549 32197 ft 428 kts 330°
2026-05-07 09:35 32.52717 29.10183 32196 ft 428 kts 330°
2026-05-07 09:36 32.57943 29.06807 32194 ft 428 kts 330°
2026-05-07 09:36 32.63132 29.03445 32193 ft 428 kts 330°
2026-05-07 09:37 32.68351 29.00060 32199 ft 428 kts 330°
2026-05-07 09:37 32.73574 28.96670 32194 ft 428 kts 330°
2026-05-07 09:38 32.78795 28.93289 32201 ft 427 kts 330°
2026-05-07 09:38 32.83998 28.89912 32207 ft 425 kts 330°
2026-05-07 09:39 32.89141 28.86558 32208 ft 424 kts 330°
2026-05-07 09:39 32.94312 28.83191 32205 ft 423 kts 330°
2026-05-07 09:40 32.99483 28.79824 32202 ft 424 kts 330°
2026-05-07 09:40 33.04651 28.76449 32196 ft 424 kts 330°
2026-05-07 09:41 33.09818 28.73065 32191 ft 424 kts 330°
2026-05-07 09:41 33.14955 28.69695 32189 ft 424 kts 330°
2026-05-07 09:42 33.20123 28.66305 32185 ft 424 kts 330°
2026-05-07 09:42 33.25284 28.62908 32205 ft 423 kts 330°
2026-05-07 09:43 33.30427 28.59519 32202 ft 422 kts 330°
2026-05-07 09:43 33.35538 28.56162 32202 ft 422 kts 330°
2026-05-07 09:43 33.38106 28.54470 32431 ft 422 kts 330°
2026-05-07 09:44 33.40667 28.52776 32794 ft 419 kts 330°
2026-05-07 09:44 33.43208 28.51096 33196 ft 416 kts 330°
2026-05-07 09:44 33.45733 28.49429 33612 ft 412 kts 330°
2026-05-07 09:44 33.48228 28.47781 34027 ft 409 kts 331°
2026-05-07 09:45 33.50718 28.46133 34172 ft 406 kts 331°
2026-05-07 09:45 33.55613 28.42894 34182 ft 404 kts 330°
2026-05-07 09:46 33.60527 28.39623 34181 ft 404 kts 330°
2026-05-07 09:46 33.65442 28.36349 34171 ft 403 kts 330°
2026-05-07 09:47 33.70324 28.33109 34179 ft 400 kts 330°
2026-05-07 09:47 33.75198 28.29882 34182 ft 400 kts 330°
2026-05-07 09:48 33.80029 28.26666 34194 ft 400 kts 330°
2026-05-07 09:48 33.84889 28.23390 34190 ft 400 kts 330°
2026-05-07 09:49 33.89744 28.20096 34188 ft 401 kts 330°
2026-05-07 09:49 33.94602 28.16806 34190 ft 401 kts 330°
2026-05-07 09:50 33.99468 28.13523 34188 ft 401 kts 330°
2026-05-07 09:50 34.04303 28.10256 34191 ft 401 kts 330°
2026-05-07 09:51 34.09163 28.06955 34202 ft 401 kts 330°
2026-05-07 09:51 34.14024 28.03647 34193 ft 401 kts 329°
2026-05-07 09:52 34.18874 28.00341 34197 ft 400 kts 329°
2026-05-07 09:52 34.23716 27.97045 34198 ft 399 kts 329°
2026-05-07 09:53 34.28522 27.93762 34194 ft 399 kts 329°
2026-05-07 09:53 34.33354 27.90457 34194 ft 399 kts 329°
2026-05-07 09:54 34.38187 27.87147 34199 ft 399 kts 329°
2026-05-07 09:54 34.43028 27.83842 34194 ft 399 kts 329°
2026-05-07 09:55 34.47833 27.80553 34190 ft 400 kts 329°
2026-05-07 09:55 34.52668 27.77226 34189 ft 400 kts 329°
2026-05-07 09:56 34.57497 27.73890 34189 ft 400 kts 329°
2026-05-07 09:56 34.62328 27.70548 34190 ft 400 kts 329°
2026-05-07 09:57 34.67163 27.67201 34186 ft 400 kts 329°
2026-05-07 09:57 34.71978 27.63869 34181 ft 401 kts 329°
2026-05-07 09:58 34.76831 27.60514 34180 ft 402 kts 329°
2026-05-07 09:58 34.81688 27.57139 34185 ft 402 kts 329°
2026-05-07 09:59 34.86533 27.53754 34187 ft 402 kts 329°
2026-05-07 09:59 34.91388 27.50367 34198 ft 402 kts 329°
2026-05-07 10:00 34.96216 27.47005 34183 ft 403 kts 328°
2026-05-07 10:00 35.01078 27.43614 34191 ft 402 kts 328°
2026-05-07 10:01 35.05927 27.40221 34197 ft 402 kts 328°
2026-05-07 10:01 35.10773 27.36826 34198 ft 401 kts 328°
2026-05-07 10:02 35.15584 27.33447 34193 ft 401 kts 328°
2026-05-07 10:02 35.20414 27.30041 34193 ft 401 kts 328°
2026-05-07 10:03 35.25251 27.26631 34192 ft 401 kts 328°
2026-05-07 10:03 35.30095 27.23236 34192 ft 401 kts 328°
2026-05-07 10:04 35.34898 27.19856 34192 ft 401 kts 328°
2026-05-07 10:04 35.39730 27.16436 34144 ft 401 kts 328°
2026-05-07 10:05 35.44568 27.13036 34161 ft 401 kts 328°
2026-05-07 10:05 35.49470 27.09756 34147 ft 402 kts 329°
2026-05-07 10:06 35.54360 27.06520 34151 ft 402 kts 329°
2026-05-07 10:06 35.59279 27.03241 34161 ft 402 kts 329°
2026-05-07 10:07 35.64190 26.99933 34168 ft 403 kts 329°
2026-05-07 10:07 35.69104 26.96613 34183 ft 403 kts 329°
2026-05-07 10:08 35.74014 26.93286 34193 ft 404 kts 328°
2026-05-07 10:08 35.78907 26.89970 34186 ft 405 kts 328°
2026-05-07 10:09 35.83847 26.86627 34171 ft 405 kts 328°
2026-05-07 10:09 35.88788 26.83274 34171 ft 405 kts 328°
2026-05-07 10:10 35.93719 26.79923 34185 ft 405 kts 328°
2026-05-07 10:10 35.98619 26.76592 34189 ft 404 kts 328°
2026-05-07 10:11 36.03555 26.73232 34195 ft 406 kts 328°
2026-05-07 10:11 36.08503 26.69860 34168 ft 407 kts 328°
2026-05-07 10:12 36.13464 26.66469 34172 ft 407 kts 328°
2026-05-07 10:12 36.18388 26.63092 34185 ft 408 kts 328°
2026-05-07 10:13 36.23351 26.59689 34183 ft 408 kts 328°
2026-05-07 10:13 36.28325 26.56291 34166 ft 409 kts 328°
2026-05-07 10:14 36.33301 26.52873 34174 ft 409 kts 327°
2026-05-07 10:14 36.38271 26.49446 34179 ft 409 kts 327°
2026-05-07 10:15 36.43211 26.46039 34183 ft 409 kts 327°
2026-05-07 10:15 36.48182 26.42609 34183 ft 409 kts 327°
2026-05-07 10:16 36.53154 26.39175 34197 ft 409 kts 327°
2026-05-07 10:16 36.58138 26.35728 34172 ft 410 kts 327°
2026-05-07 10:17 36.63093 26.32291 34170 ft 411 kts 327°
2026-05-07 10:17 36.68089 26.28815 34171 ft 411 kts 327°
2026-05-07 10:18 36.73089 26.25342 34169 ft 412 kts 327°
2026-05-07 10:18 36.78092 26.21867 34177 ft 412 kts 327°
2026-05-07 10:19 36.83067 26.18404 34169 ft 413 kts 327°
2026-05-07 10:19 36.88082 26.14896 34161 ft 413 kts 327°
2026-05-07 10:20 36.93103 26.11379 34166 ft 414 kts 327°
2026-05-07 10:20 36.98127 26.07856 34165 ft 414 kts 327°
2026-05-07 10:21 37.03125 26.04352 34178 ft 414 kts 327°
2026-05-07 10:21 37.08160 26.00817 34170 ft 415 kts 327°
2026-05-07 10:22 37.13203 25.97273 34165 ft 416 kts 327°
2026-05-07 10:22 37.18248 25.93711 34159 ft 417 kts 326°
2026-05-07 10:23 37.23268 25.90162 34158 ft 418 kts 326°
2026-05-07 10:23 37.28336 25.86585 34157 ft 418 kts 326°
2026-05-07 10:24 37.33409 25.82990 34163 ft 419 kts 326°
2026-05-07 10:24 37.38492 25.79390 34159 ft 420 kts 326°
2026-05-07 10:25 37.43581 25.75778 34154 ft 420 kts 326°
2026-05-07 10:25 37.48639 25.72177 34157 ft 421 kts 326°
2026-05-07 10:26 37.53733 25.68530 34159 ft 421 kts 326°
2026-05-07 10:26 37.58828 25.64895 34166 ft 421 kts 326°
2026-05-07 10:27 37.63942 25.61246 34138 ft 423 kts 326°
2026-05-07 10:27 37.69033 25.57596 34134 ft 425 kts 326°
2026-05-07 10:28 37.74178 25.53910 34141 ft 426 kts 326°
2026-05-07 10:28 37.79335 25.50219 34140 ft 426 kts 326°
2026-05-07 10:29 37.84486 25.46506 34144 ft 426 kts 326°
2026-05-07 10:29 37.89610 25.42816 34148 ft 427 kts 326°
2026-05-07 10:30 37.94706 25.39147 34151 ft 409 kts 326°
2026-05-07 10:30 37.97170 25.37375 34154 ft 407 kts 326°
2026-05-07 10:30 38.02120 25.33780 34152 ft 412 kts 326°
2026-05-07 10:31 38.07098 25.30162 34152 ft 413 kts 326°
2026-05-07 10:31 38.12067 25.26553 34146 ft 414 kts 326°
2026-05-07 10:32 38.17075 25.22919 34142 ft 415 kts 326°
2026-05-07 10:32 38.22081 25.19273 34143 ft 415 kts 326°
2026-05-07 10:33 38.27089 25.15625 34150 ft 415 kts 326°
2026-05-07 10:33 38.32065 25.11993 34144 ft 415 kts 326°
2026-05-07 10:34 38.37067 25.08328 34146 ft 415 kts 326°
2026-05-07 10:34 38.42072 25.04655 34142 ft 415 kts 326°
2026-05-07 10:35 38.47086 25.00978 34135 ft 415 kts 326°
2026-05-07 10:35 38.52058 24.97315 34132 ft 416 kts 326°
2026-05-07 10:36 38.57069 24.93626 34134 ft 416 kts 326°
2026-05-07 10:36 38.62077 24.89930 34143 ft 416 kts 326°
2026-05-07 10:37 38.67088 24.86226 34136 ft 416 kts 326°
2026-05-07 10:37 38.72071 24.82541 34135 ft 416 kts 326°
2026-05-07 10:38 38.77093 24.78824 34137 ft 417 kts 326°
2026-05-07 10:38 38.82110 24.75105 34134 ft 417 kts 326°
2026-05-07 10:39 38.87124 24.71372 34137 ft 417 kts 326°
2026-05-07 10:39 38.92117 24.67660 34131 ft 417 kts 326°
2026-05-07 10:40 38.97138 24.63914 34121 ft 418 kts 326°
2026-05-07 10:40 39.02163 24.60156 34122 ft 418 kts 326°
2026-05-07 10:41 39.07181 24.56395 34129 ft 418 kts 326°
2026-05-07 10:41 39.12171 24.52650 34137 ft 418 kts 326°
2026-05-07 10:42 39.17197 24.48882 34131 ft 418 kts 326°
2026-05-07 10:42 39.22226 24.45092 34127 ft 418 kts 326°
2026-05-07 10:43 39.27251 24.41299 34123 ft 419 kts 326°
2026-05-07 10:43 39.32245 24.37530 34121 ft 419 kts 326°
2026-05-07 10:44 39.37282 24.33727 34129 ft 420 kts 326°
2026-05-07 10:44 39.42325 24.29911 34122 ft 420 kts 326°
2026-05-07 10:45 39.47377 24.26079 34120 ft 421 kts 326°
2026-05-07 10:45 39.52428 24.22229 34120 ft 421 kts 326°
2026-05-07 10:46 39.57443 24.18406 34121 ft 421 kts 326°
2026-05-07 10:46 39.62501 24.14560 34132 ft 422 kts 326°
2026-05-07 10:47 39.67558 24.10697 34132 ft 422 kts 326°
2026-05-07 10:47 39.72609 24.06826 34139 ft 422 kts 326°
2026-05-07 10:48 39.77625 24.02978 34147 ft 421 kts 326°
2026-05-07 10:48 39.82666 23.99120 34148 ft 420 kts 326°
2026-05-07 10:49 39.87695 23.95252 34155 ft 420 kts 325°
2026-05-07 10:49 39.92712 23.91376 34153 ft 419 kts 325°
2026-05-07 10:50 39.97698 23.87527 34146 ft 419 kts 325°
2026-05-07 10:50 40.02715 23.83659 34144 ft 419 kts 325°
2026-05-07 10:51 40.07724 23.79781 34141 ft 419 kts 325°
2026-05-07 10:51 40.12737 23.75893 34144 ft 419 kts 326°
2026-05-07 10:52 40.17748 23.71999 34132 ft 419 kts 325°
2026-05-07 10:52 40.22735 23.68119 34128 ft 420 kts 325°
2026-05-07 10:53 40.27754 23.64197 34123 ft 420 kts 325°
2026-05-07 10:53 40.32776 23.60261 34125 ft 421 kts 325°
2026-05-07 10:54 40.37804 23.56332 34127 ft 421 kts 325°
2026-05-07 10:54 40.42797 23.52427 34127 ft 421 kts 325°
2026-05-07 10:55 40.47824 23.48472 34132 ft 421 kts 325°
2026-05-07 10:55 40.52850 23.44516 34417 ft 421 kts 325°
2026-05-07 10:56 40.55360 23.42535 34723 ft 420 kts 324°
2026-05-07 10:56 40.57865 23.40554 35015 ft 420 kts 324°
2026-05-07 10:56 40.60340 23.38598 35302 ft 421 kts 324°
2026-05-07 10:56 40.62852 23.36615 35645 ft 421 kts 324°
2026-05-07 10:57 40.65357 23.34638 35950 ft 419 kts 324°
2026-05-07 10:57 40.67856 23.32666 36122 ft 419 kts 324°
2026-05-07 10:57 40.72839 23.28723 36141 ft 417 kts 324°
2026-05-07 10:58 40.77810 23.24778 36144 ft 417 kts 324°
2026-05-07 10:58 40.82738 23.20858 36158 ft 417 kts 324°
2026-05-07 10:59 40.87720 23.16882 36147 ft 419 kts 324°
2026-05-07 10:59 40.92714 23.12900 36146 ft 419 kts 324°
2026-05-07 11:00 40.97713 23.08919 36148 ft 420 kts 324°
2026-05-07 11:00 41.02681 23.04937 36139 ft 421 kts 324°
2026-05-07 11:01 41.07695 23.00895 36152 ft 421 kts 321°
2026-05-07 11:01 41.12001 22.95828 36153 ft 410 kts 305°
2026-05-07 11:02 41.15680 22.90033 36152 ft 411 kts 306°
2026-05-07 11:02 41.19380 22.84237 36158 ft 412 kts 306°
2026-05-07 11:03 41.23056 22.78468 36150 ft 412 kts 306°
2026-05-07 11:03 41.26788 22.72670 36126 ft 415 kts 307°
2026-05-07 11:04 41.30703 22.66973 36133 ft 419 kts 309°
2026-05-07 11:04 41.34644 22.61325 36139 ft 420 kts 308°
2026-05-07 11:05 41.38583 22.55585 36159 ft 420 kts 308°
2026-05-07 11:05 41.42495 22.49818 36154 ft 419 kts 308°
2026-05-07 11:06 41.46409 22.44045 36155 ft 420 kts 308°
2026-05-07 11:06 41.50307 22.38292 36144 ft 421 kts 308°
2026-05-07 11:07 41.54239 22.32481 36142 ft 423 kts 308°
2026-05-07 11:07 41.58183 22.26646 36146 ft 423 kts 308°
2026-05-07 11:08 41.62123 22.20795 36151 ft 424 kts 308°
2026-05-07 11:08 41.66045 22.14963 36155 ft 424 kts 308°
2026-05-07 11:09 41.69986 22.09088 36155 ft 425 kts 308°
2026-05-07 11:09 41.73940 22.03193 36149 ft 426 kts 308°
2026-05-07 11:10 41.77894 21.97275 36150 ft 427 kts 307°
2026-05-07 11:10 41.81820 21.91383 36152 ft 427 kts 307°
2026-05-07 11:11 41.85774 21.85444 36156 ft 427 kts 307°
2026-05-07 11:11 41.89735 21.79493 36175 ft 427 kts 307°
2026-05-07 11:12 41.93685 21.73535 36181 ft 427 kts 307°
2026-05-07 11:12 41.97604 21.67604 36176 ft 427 kts 307°
2026-05-07 11:13 42.01560 21.61628 36168 ft 428 kts 307°
2026-05-07 11:13 42.05511 21.55639 36154 ft 428 kts 307°
2026-05-07 11:14 42.09458 21.49636 36153 ft 428 kts 307°
2026-05-07 11:14 42.13376 21.43661 36151 ft 428 kts 307°
2026-05-07 11:15 42.17307 21.37641 36149 ft 428 kts 307°
2026-05-07 11:15 42.21172 21.31543 36158 ft 428 kts 306°
2026-05-07 11:16 42.25005 21.25408 36150 ft 428 kts 306°
2026-05-07 11:16 42.28852 21.19265 36148 ft 428 kts 306°
2026-05-07 11:17 42.32707 21.13122 36170 ft 428 kts 306°
2026-05-07 11:17 42.36530 21.07018 36165 ft 428 kts 306°
2026-05-07 11:18 42.40372 21.00862 36159 ft 428 kts 306°
2026-05-07 11:18 42.44218 20.94698 36163 ft 429 kts 306°
2026-05-07 11:19 42.48069 20.88528 36176 ft 429 kts 306°
2026-05-07 11:19 42.51885 20.82389 36166 ft 429 kts 306°
2026-05-07 11:20 42.55725 20.76193 36166 ft 429 kts 305°
2026-05-07 11:20 42.59563 20.69978 36152 ft 430 kts 305°
2026-05-07 11:21 42.63404 20.63746 36144 ft 430 kts 305°
2026-05-07 11:21 42.67226 20.57547 36131 ft 431 kts 305°
2026-05-07 11:22 42.71070 20.51302 36133 ft 431 kts 305°
2026-05-07 11:22 42.74903 20.45038 36147 ft 431 kts 305°
2026-05-07 11:23 42.78736 20.38764 36147 ft 431 kts 305°
2026-05-07 11:23 42.82582 20.32486 36130 ft 432 kts 308°
2026-05-07 11:24 42.87077 20.27034 36119 ft 438 kts 316°
2026-05-07 11:24 42.91791 20.21788 36118 ft 438 kts 316°
2026-05-07 11:25 42.96496 20.16508 36101 ft 438 kts 316°
2026-05-07 11:25 43.00408 20.12105 36119 ft 438 kts 316°
2026-05-07 11:26 43.05110 20.06810 36107 ft 438 kts 316°
2026-05-07 11:26 43.10581 20.00647 36099 ft 438 kts 316°
2026-05-07 11:27 43.14489 19.96233 36094 ft 438 kts 315°
2026-05-07 11:27 43.19187 19.90905 36089 ft 438 kts 315°
2026-05-07 11:28 43.23888 19.85578 36095 ft 438 kts 316°
2026-05-07 11:28 43.28593 19.80246 36105 ft 439 kts 315°
2026-05-07 11:29 43.33263 19.74933 36093 ft 439 kts 315°
2026-05-07 11:29 43.37964 19.69562 36088 ft 439 kts 315°
2026-05-07 11:30 43.42663 19.64182 36080 ft 439 kts 315°
2026-05-07 11:30 43.47362 19.58797 36078 ft 440 kts 315°
2026-05-07 11:31 43.52024 19.53443 36091 ft 439 kts 315°
2026-05-07 11:31 43.56709 19.48050 36089 ft 439 kts 315°
2026-05-07 11:32 43.63735 19.39929 36084 ft 439 kts 315°
2026-05-07 11:33 43.68417 19.34511 36087 ft 439 kts 315°
2026-05-07 11:33 43.73062 19.29134 36084 ft 438 kts 315°
2026-05-07 11:34 43.77769 19.23632 36066 ft 448 kts 314°
2026-05-07 11:34 43.82420 19.17745 36070 ft 457 kts 312°
2026-05-07 11:35 43.86723 19.11318 36064 ft 449 kts 295°
2026-05-07 11:35 43.87879 19.07360 36087 ft 441 kts 281°
2026-05-07 11:35 43.88697 19.03265 36067 ft 441 kts 281°
2026-05-07 11:36 43.90378 18.95082 36067 ft 442 kts 282°
2026-05-07 11:36 43.92102 18.86973 36073 ft 442 kts 282°
2026-05-07 11:37 43.93844 18.78781 36075 ft 442 kts 282°
2026-05-07 11:37 43.95568 18.70597 36099 ft 442 kts 282°
2026-05-07 11:38 43.97271 18.62419 36109 ft 439 kts 282°
2026-05-07 11:38 43.98941 18.54349 36100 ft 437 kts 282°
2026-05-07 11:39 44.01136 18.46440 36085 ft 445 kts 296°
2026-05-07 11:39 44.04975 18.39623 36081 ft 454 kts 312°
2026-05-07 11:40 44.09536 18.33526 36089 ft 455 kts 311°
2026-05-07 11:40 44.14052 18.27431 36082 ft 456 kts 311°
2026-05-07 11:41 44.18604 18.21267 36081 ft 456 kts 311°
2026-05-07 11:41 44.23166 18.15103 36100 ft 457 kts 311°
2026-05-07 11:42 44.27723 18.08930 36093 ft 456 kts 311°
2026-05-07 11:42 44.32230 18.02804 36091 ft 455 kts 311°
2026-05-07 11:43 44.36763 17.96630 36088 ft 455 kts 311°
2026-05-07 11:43 44.41291 17.90451 36078 ft 455 kts 311°
2026-05-07 11:44 44.45822 17.84265 36093 ft 455 kts 310°
2026-05-07 11:44 44.50311 17.78111 36085 ft 454 kts 310°
2026-05-07 11:45 44.54823 17.71910 36080 ft 454 kts 310°
2026-05-07 11:45 44.59330 17.65702 36087 ft 454 kts 310°
2026-05-07 11:46 44.63836 17.59488 36069 ft 454 kts 310°
2026-05-07 11:46 44.68335 17.53280 36067 ft 453 kts 310°
2026-05-07 11:47 44.72800 17.47095 36069 ft 454 kts 310°
2026-05-07 11:47 44.77283 17.40855 36070 ft 454 kts 310°
2026-05-07 11:48 44.81770 17.34607 36068 ft 454 kts 310°
2026-05-07 11:48 44.86256 17.28347 36088 ft 454 kts 309°
2026-05-07 11:49 44.90746 17.22070 36080 ft 455 kts 309°
2026-05-07 11:49 44.95588 17.16376 36066 ft 467 kts 327°
2026-05-07 11:50 45.01378 17.12183 36061 ft 468 kts 327°
2026-05-07 11:50 45.07182 17.07979 36085 ft 469 kts 327°
2026-05-07 11:51 45.12956 17.03793 36083 ft 470 kts 327°
2026-05-07 11:51 45.18773 16.99571 36073 ft 470 kts 327°
2026-05-07 11:52 45.24590 16.95342 36070 ft 470 kts 327°
2026-05-07 11:52 45.30411 16.91108 36077 ft 470 kts 327°
2026-05-07 11:53 45.36239 16.86863 36104 ft 471 kts 327°
2026-05-07 11:53 45.42058 16.82622 36068 ft 470 kts 327°
2026-05-07 11:54 45.47833 16.78408 36055 ft 470 kts 327°
2026-05-07 11:54 45.53653 16.74158 36057 ft 470 kts 327°
2026-05-07 11:55 45.59481 16.69896 36052 ft 470 kts 327°
2026-05-07 11:55 45.65244 16.65614 36047 ft 467 kts 321°
2026-05-07 11:55 45.67779 16.62839 36065 ft 454 kts 308°
2026-05-07 11:56 45.69639 16.59337 36066 ft 434 kts 289°
2026-05-07 11:56 45.70441 16.55300 36047 ft 416 kts 268°
2026-05-07 11:56 45.70111 16.51289 36033 ft 403 kts 247°
2026-05-07 11:56 45.68728 16.47875 36018 ft 397 kts 227°
2026-05-07 11:57 45.66835 16.44995 36010 ft 398 kts 230°
2026-05-07 11:57 45.65373 16.41646 35985 ft 401 kts 248°
2026-05-07 11:57 45.64802 16.37723 36004 ft 406 kts 259°
2026-05-07 11:58 45.65070 16.29695 35989 ft 423 kts 285°
2026-05-07 11:58 45.67580 16.22002 36013 ft 439 kts 302°
2026-05-07 11:58 45.69818 16.18933 36013 ft 452 kts 315°
2026-05-07 11:59 45.72294 16.16144 36012 ft 453 kts 314°
2026-05-07 11:59 45.77210 16.10469 36010 ft 454 kts 314°
2026-05-07 12:00 45.82075 16.04680 36011 ft 455 kts 313°
2026-05-07 12:00 45.86902 15.98893 36017 ft 456 kts 313°
2026-05-07 12:01 45.91791 15.93063 36026 ft 457 kts 313°
2026-05-07 12:01 45.96698 15.87232 36011 ft 459 kts 313°
2026-05-07 12:02 46.01614 15.81361 36006 ft 459 kts 313°
2026-05-07 12:02 46.06515 15.75471 36006 ft 459 kts 313°
2026-05-07 12:03 46.11395 15.69606 36015 ft 460 kts 313°
2026-05-07 12:03 46.16315 15.63683 35990 ft 460 kts 312°
2026-05-07 12:04 46.20746 15.57159 36007 ft 455 kts 306°
2026-05-07 12:04 46.25071 15.50489 35998 ft 455 kts 306°
2026-05-07 12:05 46.29370 15.43855 35998 ft 455 kts 306°
2026-05-07 12:05 46.33694 15.37158 36023 ft 455 kts 306°
2026-05-07 12:06 46.38009 15.30460 36002 ft 455 kts 306°
2026-05-07 12:06 46.42324 15.23734 35996 ft 456 kts 306°
2026-05-07 12:07 46.46645 15.16991 35990 ft 456 kts 306°
2026-05-07 12:07 46.50933 15.10293 35980 ft 456 kts 306°
2026-05-07 12:08 46.55244 15.03535 36006 ft 455 kts 306°
2026-05-07 12:08 46.59539 14.96786 35991 ft 455 kts 306°
2026-05-07 12:09 46.63804 14.90051 35984 ft 456 kts 306°
2026-05-07 12:09 46.68032 14.83378 35948 ft 435 kts 306°
2026-05-07 12:09 46.70053 14.80205 35950 ft 421 kts 306°
2026-05-07 12:10 46.72027 14.77091 35954 ft 417 kts 305°
2026-05-07 12:10 46.75911 14.70909 35953 ft 411 kts 305°
2026-05-07 12:11 46.79758 14.64762 35950 ft 410 kts 305°
2026-05-07 12:11 46.83579 14.58662 35953 ft 410 kts 305°
2026-05-07 12:12 46.87429 14.52514 35948 ft 409 kts 305°
2026-05-07 12:12 46.91268 14.46367 35948 ft 410 kts 305°
2026-05-07 12:13 46.95109 14.40200 35967 ft 410 kts 305°
2026-05-07 12:13 46.98944 14.34019 35950 ft 410 kts 305°
2026-05-07 12:14 47.02757 14.27859 35950 ft 411 kts 305°
2026-05-07 12:14 47.06597 14.21663 35946 ft 411 kts 305°
2026-05-07 12:15 47.10432 14.15455 35943 ft 410 kts 306°
2026-05-07 12:15 47.14286 14.09198 35965 ft 419 kts 306°
2026-05-07 12:16 47.18220 14.02776 35957 ft 432 kts 306°
2026-05-07 12:16 47.22299 13.96097 35959 ft 445 kts 306°
2026-05-07 12:17 47.26461 13.89288 35961 ft 449 kts 306°
2026-05-07 12:17 47.30640 13.82454 35973 ft 449 kts 306°
2026-05-07 12:18 47.34819 13.75602 35967 ft 450 kts 306°
2026-05-07 12:18 47.38993 13.68715 35982 ft 450 kts 306°
2026-05-07 12:19 47.43139 13.61863 35996 ft 451 kts 306°
2026-05-07 12:19 47.47309 13.54953 35995 ft 451 kts 306°
2026-05-07 12:20 47.51478 13.48020 35998 ft 451 kts 306°
2026-05-07 12:20 47.55642 13.41082 36031 ft 451 kts 306°
2026-05-07 12:21 47.59775 13.34188 36027 ft 450 kts 306°
2026-05-07 12:21 47.63930 13.27229 36036 ft 450 kts 306°
2026-05-07 12:22 47.68073 13.20273 36035 ft 450 kts 307°
2026-05-07 12:22 47.72217 13.13310 36043 ft 450 kts 307°
2026-05-07 12:23 47.76325 13.06380 36047 ft 450 kts 307°
2026-05-07 12:23 47.80454 12.99395 36042 ft 449 kts 307°
2026-05-07 12:24 47.84574 12.92396 36029 ft 449 kts 307°
2026-05-07 12:24 47.88691 12.85392 36028 ft 449 kts 307°
2026-05-07 12:25 47.92771 12.78423 36044 ft 449 kts 307°
2026-05-07 12:25 47.96877 12.71400 36044 ft 449 kts 307°
2026-05-07 12:26 48.00980 12.64373 36038 ft 449 kts 307°
2026-05-07 12:26 48.04946 12.57198 36025 ft 445 kts 299°
2026-05-07 12:27 48.07542 12.48940 36022 ft 437 kts 285°
2026-05-07 12:27 48.09543 12.40419 36018 ft 437 kts 286°
2026-05-07 12:28 48.11579 12.31838 36015 ft 438 kts 286°
2026-05-07 12:28 48.13589 12.23246 36015 ft 437 kts 285°
2026-05-07 12:29 48.15565 12.14637 36015 ft 436 kts 283°
2026-05-07 12:29 48.16501 12.05750 36018 ft 431 kts 272°
2026-05-07 12:30 48.17072 11.96859 36024 ft 432 kts 273°
2026-05-07 12:30 48.17652 11.87900 36019 ft 433 kts 273°
2026-05-07 12:31 48.18496 11.78961 36014 ft 436 kts 281°
2026-05-07 12:31 48.19959 11.70145 36017 ft 436 kts 281°
2026-05-07 12:32 48.21424 11.61320 36026 ft 436 kts 281°
2026-05-07 12:32 48.22885 11.52483 36019 ft 437 kts 281°
2026-05-07 12:33 48.25040 11.39257 36017 ft 437 kts 281°
2026-05-07 12:33 48.27251 11.30715 35303 ft 448 kts 298°
2026-05-07 12:34 48.29104 11.26913 34520 ft 455 kts 309°
2026-05-07 12:34 48.31328 11.23474 33530 ft 462 kts 311°
2026-05-07 12:34 48.33582 11.20038 32770 ft 460 kts 313°
2026-05-07 12:34 48.35777 11.16662 32037 ft 457 kts 313°
2026-05-07 12:35 48.37988 11.13229 31156 ft 457 kts 313°
2026-05-07 12:35 48.40191 11.09788 30296 ft 457 kts 313°
2026-05-07 12:35 48.42394 11.06344 29299 ft 456 kts 313°
2026-05-07 12:35 48.44596 11.02901 28191 ft 457 kts 313°
2026-05-07 12:36 48.46808 10.99441 27038 ft 459 kts 313°
2026-05-07 12:36 48.49030 10.95962 25847 ft 462 kts 313°
2026-05-07 12:36 48.51262 10.92456 24657 ft 465 kts 313°
2026-05-07 12:36 48.53471 10.88946 23620 ft 466 kts 312°
2026-05-07 12:37 48.55672 10.85421 22811 ft 459 kts 312°
2026-05-07 12:37 48.57837 10.81937 22034 ft 452 kts 312°
2026-05-07 12:37 48.59980 10.78503 21245 ft 446 kts 312°
2026-05-07 12:37 48.62105 10.75116 20428 ft 441 kts 312°
2026-05-07 12:38 48.64209 10.71768 19651 ft 437 kts 312°
2026-05-07 12:38 48.66292 10.68458 18888 ft 432 kts 312°
2026-05-07 12:38 48.68361 10.65178 18120 ft 428 kts 312°
2026-05-07 12:38 48.70227 10.61720 17287 ft 422 kts 302°
2026-05-07 12:39 48.71567 10.57802 16522 ft 417 kts 290°
2026-05-07 12:39 48.72357 10.53623 15774 ft 411 kts 279°
2026-05-07 12:39 48.72573 10.49396 15014 ft 404 kts 269°
2026-05-07 12:39 48.72319 10.45261 13903 ft 385 kts 262°
2026-05-07 12:40 48.71987 10.41381 13535 ft 365 kts 262°
2026-05-07 12:40 48.71662 10.37579 13004 ft 363 kts 262°
2026-05-07 12:40 48.71342 10.33801 12469 ft 361 kts 262°
2026-05-07 12:40 48.71026 10.30049 11919 ft 358 kts 263°
2026-05-07 12:41 48.70716 10.26347 11375 ft 349 kts 263°
2026-05-07 12:41 48.70421 10.22841 11032 ft 322 kts 263°
2026-05-07 12:41 48.70141 10.19533 10792 ft 313 kts 263°
2026-05-07 12:41 48.69867 10.16315 10540 ft 304 kts 263°
2026-05-07 12:42 48.69601 10.13187 10284 ft 295 kts 263°
2026-05-07 12:42 48.69342 10.10135 10043 ft 290 kts 263°
2026-05-07 12:42 48.69178 10.07166 9872 ft 283 kts 270°
2026-05-07 12:42 48.69361 10.04245 9733 ft 275 kts 280°
2026-05-07 12:43 48.69704 10.01461 9596 ft 265 kts 279°
2026-05-07 12:43 48.70032 9.98769 9462 ft 255 kts 279°
2026-05-07 12:43 48.70344 9.96180 9321 ft 245 kts 279°
2026-05-07 12:43 48.70643 9.93686 9189 ft 236 kts 279°
2026-05-07 12:44 48.70931 9.91275 9057 ft 231 kts 279°
2026-05-07 12:44 48.71217 9.88887 8926 ft 230 kts 279°
2026-05-07 12:44 48.71500 9.86508 8794 ft 229 kts 279°
2026-05-07 12:44 48.71780 9.84138 8642 ft 229 kts 279°
2026-05-07 12:45 48.72061 9.81753 8283 ft 231 kts 280°
2026-05-07 12:45 48.72363 9.79349 7881 ft 233 kts 279°
2026-05-07 12:45 48.72650 9.76925 7484 ft 235 kts 279°
2026-05-07 12:45 48.72936 9.74459 7072 ft 240 kts 279°
2026-05-07 12:46 48.73224 9.71968 6655 ft 247 kts 279°
2026-05-07 12:46 48.73525 9.69354 6193 ft 255 kts 279°
2026-05-07 12:46 48.73834 9.66686 5727 ft 259 kts 279°
2026-05-07 12:46 48.74142 9.64037 5586 ft 249 kts 279°
2026-05-07 12:47 48.74435 9.61524 5503 ft 237 kts 280°
2026-05-07 12:47 48.74721 9.59132 5448 ft 225 kts 280°
2026-05-07 12:47 48.74991 9.56842 5356 ft 220 kts 279°
2026-05-07 12:47 48.75054 9.54544 5248 ft 219 kts 262°
2026-05-07 12:48 48.74677 9.52330 4934 ft 222 kts 255°
2026-05-07 12:48 48.74238 9.50064 4694 ft 223 kts 255°
2026-05-07 12:48 48.73809 9.47805 4389 ft 224 kts 256°
2026-05-07 12:48 48.73386 9.45514 4056 ft 225 kts 257°
2026-05-07 12:49 48.72992 9.43250 3704 ft 219 kts 255°
2026-05-07 12:49 48.72559 9.41108 3302 ft 200 kts 255°
2026-05-07 12:49 48.72200 9.39237 3140 ft 170 kts 257°
2026-05-07 12:49 48.71888 9.37592 2991 ft 156 kts 257°
2026-05-07 12:50 48.71608 9.36068 2819 ft 147 kts 257°
2026-05-07 12:50 48.71334 9.34610 2598 ft 146 kts 257°
2026-05-07 12:50 48.71066 9.33157 2390 ft 142 kts 256°
2026-05-07 12:50 48.70792 9.31736 2187 ft 139 kts 257°
2026-05-07 12:51 48.70525 9.30337 1979 ft 139 kts 258°
2026-05-07 12:51 48.70254 9.28910 1837 ft 145 kts 258°
2026-05-07 12:51 48.69973 9.27426 1680 ft 148 kts 257°
2026-05-07 12:51 48.69686 9.25916 1517 ft 151 kts 256°
2026-05-07 12:52 48.69409 9.24428 1357 ft 141 kts 258°
2026-05-07 12:52 48.69161 9.23088 1287 ft 118 kts 254°
2026-05-07 12:52 48.68990 9.22189 1286 ft 63 kts 253°
2026-05-07 12:52 48.68883 9.21630 1287 ft 45 kts 253°
2026-05-07 12:53 48.68817 9.21245 1288 ft 31 kts 266°
2026-05-07 12:53 48.68834 9.21011 1285 ft 21 kts 275°
2026-05-07 12:53 48.68853 9.20875 1287 ft 8 kts 283°
2026-05-07 12:53 48.68866 9.20790 1289 ft 8 kts 283°
2026-05-07 12:54 48.68877 9.20711 1288 ft 7 kts 268°
2026-05-07 12:54 48.68858 9.20587 1289 ft 17 kts 254°
2026-05-07 12:54 48.68825 9.20414 1287 ft 17 kts 254°
2026-05-07 12:54 48.68794 9.20248 1286 ft 16 kts 254°
2026-05-07 12:55 48.68764 9.20092 1285 ft 15 kts 254°
2026-05-07 12:55 48.68789 9.19957 1287 ft 14 kts 312°
2026-05-07 12:55 48.68862 9.19879 1287 ft 13 kts 339°
2026-05-07 12:55 48.68884 9.19804 1285 ft 7 kts 249°
2026-05-07 12:56 48.68871 9.19738 1289 ft 6 kts 253°
2026-05-07 12:56 48.68866 9.19686 1285 ft 3 kts 300°
2026-05-07 12:56 48.68895 9.19667 1287 ft 10 kts 342°
2026-05-07 12:56 48.68939 9.19647 1285 ft 0 kts 344°